Wind From: 11-12-2017 10:04 Until: 12-12-2017 06:00 warning for: Wind Level: Orange info button

Power and phone distribution networks may be disrupted for relatively long periods., Roofs and chimneys can be damaged. , Tree branches may break. , Vehicles can be deported. , Traffic may be disrupted, particularly on secondary roads in forest areas. Limit your trips. , Limit your speed in highway driving, especially if you drive a vehicle or hitch sensitive to wind. , Do not go for walks in forests or along the coast., In town, be vigilant against possible falling objects., Do not work on roofs and do not touch any electrical line fallen on the ground., Store or secure sensitive objects to wind or likely to be damaged., Always install power generators outside buildings. 


Meteo18 Weather Cam more information Meteo18 Weather Cam


Thunder radar more information blitzortung!


Rain radar more information rain snow radar


Visit our other weather sites:

Template documentation
and downloads

And another site



Weather Underground History page Text

Daily Summary for July 20, 2017 Units:  English    Metric   Both
« Previous Day
Next Day »
Daily Weekly Monthly Yearly Custom
  High: Low: Average:
Temperature: 73.2 °F 60.1 °F 67.8 °F
Dew Point: 65.5 °F 53.6 °F 58.1 °F
Humidity: 89 % 52 % 72 %
Wind Speed: 17 mph 0 mph 4.9 mph
Wind Gust: 25 mph - -
Wind:- - WSW
Pressure: 30 in 29.9 in -
Precipitation: 0 in    
Historical Graphs
 
 
Tabular Data for July 20, 2017
Time Temperature Dew Point Pressure Wind Wind Speed Wind Gust Humidity Rainfall Rate (Hourly)
00:02 69.4 °F 65.5 °F 29.9 in WSW 4 mph 7 mph 87 % 0 in
00:12 69.4 °F 65.1 °F 29.9 in SW 6 mph 8 mph 86 % 0 in
00:17 69.4 °F 65.1 °F 29.9 in WSW 3 mph 8 mph 86 % 0 in
00:22 69.4 °F 65.1 °F 29.9 in SW 4 mph 9 mph 86 % 0 in
00:32 69.4 °F 64.8 °F 29.9 in SW 1 mph 7 mph 85 % 0 in
00:37 69.3 °F 64.6 °F 29.9 in West 4 mph 7 mph 85 % 0 in
00:42 69.3 °F 64.6 °F 29.9 in West 1 mph 7 mph 85 % 0 in
00:47 69.3 °F 64.2 °F 29.9 in West 7 mph 8 mph 84 % 0 in
00:52 69.3 °F 63.9 °F 29.9 in SW 4 mph 8 mph 83 % 0 in
00:57 69.3 °F 63.9 °F 29.9 in WSW 4 mph 11 mph 83 % 0 in
01:02 69.1 °F 63.7 °F 29.9 in WSW 6 mph 11 mph 83 % 0 in
01:07 69.1 °F 63.7 °F 29.9 in WSW 4 mph 10 mph 83 % 0 in
01:12 68.9 °F 63.5 °F 29.9 in West 3 mph 9 mph 83 % 0 in
01:22 68.5 °F 63.5 °F 29.9 in SW 3 mph 9 mph 84 % 0 in
01:27 68.4 °F 63.3 °F 29.9 in WSW 3 mph 9 mph 84 % 0 in
01:32 68.4 °F 63.7 °F 29.9 in WSW 4 mph 9 mph 85 % 0 in
01:42 68 °F 63.3 °F 29.9 in SW 3 mph 6 mph 85 % 0 in
01:47 67.8 °F 63.1 °F 29.9 in SW 8 mph 8 mph 85 % 0 in
01:52 67.8 °F 63.1 °F 29.9 in SW 3 mph 9 mph 85 % 0 in
01:57 67.6 °F 63 °F 29.9 in SW 5 mph 9 mph 85 % 0 in
02:02 67.5 °F 62.8 °F 29.9 in WSW 2 mph 9 mph 85 % 0 in
02:07 67.5 °F 62.8 °F 29.9 in SSW 2 mph 9 mph 85 % 0 in
02:12 67.3 °F 62.6 °F 29.9 in SW 3 mph 7 mph 85 % 0 in
02:17 67.3 °F 62.6 °F 29.9 in WSW 5 mph 8 mph 85 % 0 in
02:22 67.1 °F 62.4 °F 29.9 in SW 3 mph 8 mph 85 % 0 in
02:32 66.9 °F 62.6 °F 29.9 in SW 2 mph 7 mph 86 % 0 in
02:42 66.7 °F 62.4 °F 29.9 in SW 1 mph 7 mph 86 % 0 in
02:52 66.6 °F 62.2 °F 29.9 in SW 4 mph 7 mph 86 % 0 in
02:57 66.4 °F 62.1 °F 29.9 in WSW 5 mph 7 mph 86 % 0 in
03:02 66.4 °F 62.4 °F 29.9 in SSW 7 mph 7 mph 87 % 0 in
03:07 66.2 °F 62.2 °F 29.9 in South 2 mph 8 mph 87 % 0 in
03:12 66.2 °F 61.9 °F 29.9 in SW 5 mph 8 mph 86 % 0 in
03:17 66.2 °F 61.9 °F 29.9 in SSW 2 mph 8 mph 86 % 0 in
03:22 66.2 °F 61.9 °F 29.9 in SW 5 mph 8 mph 86 % 0 in
03:32 66 °F 61.7 °F 29.9 in SW 3 mph 8 mph 86 % 0 in
03:42 66 °F 61.3 °F 29.9 in SSW 7 mph 9 mph 85 % 0 in
03:47 66 °F 61.3 °F 29.9 in SSW 3 mph 8 mph 85 % 0 in
03:52 65.8 °F 61.5 °F 29.9 in SSW 5 mph 8 mph 86 % 0 in
04:02 65.7 °F 61.3 °F 29.9 in SW 3 mph 8 mph 86 % 0 in
04:07 65.5 °F 61.2 °F 29.9 in SW 5 mph 7 mph 86 % 0 in
04:12 65.5 °F 61.2 °F 29.9 in SSW 2 mph 7 mph 86 % 0 in
04:17 65.5 °F 61.2 °F 29.9 in SW 3 mph 8 mph 86 % 0 in
04:22 65.7 °F 61 °F 29.9 in WSW 5 mph 8 mph 85 % 0 in
04:27 65.7 °F 61 °F 29.9 in WSW 5 mph 8 mph 85 % 0 in
04:32 65.7 °F 61 °F 29.9 in SW 3 mph 8 mph 85 % 0 in
04:42 64.9 °F 60.3 °F 29.9 in SW 2 mph 7 mph 85 % 0 in
04:47 64.6 °F 60.3 °F 29.9 in SSE 3 mph 7 mph 86 % 0 in
04:52 64.2 °F 60.3 °F 29.9 in SSW 1 mph 7 mph 87 % 0 in
05:02 63.9 °F 60.3 °F 29.9 in SW 3 mph 5 mph 88 % 0 in
05:12 63.9 °F 60.3 °F 29.9 in WSW 2 mph 5 mph 88 % 0 in
05:17 63.9 °F 60.6 °F 29.9 in WSW 3 mph 6 mph 89 % 0 in
05:22 63.9 °F 60.6 °F 29.9 in SW 3 mph 6 mph 89 % 0 in
05:27 63.9 °F 60.6 °F 29.9 in SSW 3 mph 6 mph 89 % 0 in
05:32 63.7 °F 60.4 °F 29.9 in SSW 4 mph 6 mph 89 % 0 in
05:42 64.2 °F 61 °F 29.9 in SW 4 mph 7 mph 89 % 0 in
05:47 64.8 °F 61.2 °F 29.9 in WSW 4 mph 8 mph 88 % 0 in
05:52 64.9 °F 61 °F 29.9 in SW 10 mph 10 mph 87 % 0 in
06:02 65.5 °F 60.8 °F 29.9 in SW 7 mph 11 mph 85 % 0 in
06:12 65.3 °F 60.6 °F 29.9 in SW 7 mph 12 mph 85 % 0 in
06:17 65.1 °F 60.4 °F 29.9 in SW 7 mph 13 mph 85 % 0 in
06:22 65.1 °F 60.4 °F 29.9 in SSW 7 mph 13 mph 85 % 0 in
06:32 65.3 °F 60.6 °F 29.9 in WSW 6 mph 11 mph 85 % 0 in
06:42 65.3 °F 60.6 °F 29.9 in SW 7 mph 13 mph 85 % 0 in
06:47 65.5 °F 61.2 °F 29.9 in SW 6 mph 12 mph 86 % 0 in
06:52 65.5 °F 61.2 °F 29.9 in South 8 mph 12 mph 86 % 0 in
06:57 65.5 °F 61.2 °F 30 in SSW 6 mph 12 mph 86 % 0 in
07:02 65.5 °F 61.2 °F 30 in SW 7 mph 12 mph 86 % 0 in
07:12 65.5 °F 61.2 °F 30 in SSW 7 mph 12 mph 86 % 0 in
07:17 65.5 °F 61.2 °F 30 in SW 4 mph 14 mph 86 % 0 in
07:27 65.5 °F 61.2 °F 30 in WSW 6 mph 14 mph 86 % 0 in
07:32 65.5 °F 60.8 °F 30 in WSW 7 mph 14 mph 85 % 0 in
07:42 65.7 °F 61 °F 30 in SSW 15 mph 15 mph 85 % 0 in
07:47 65.7 °F 61 °F 30 in SSW 3 mph 16 mph 85 % 0 in
07:52 65.8 °F 60.8 °F 30 in WSW 8 mph 16 mph 84 % 0 in
08:02 65.7 °F 60.4 °F 30 in WSW 5 mph 16 mph 83 % 0 in
08:12 65.5 °F 60.3 °F 30 in SW 3 mph 16 mph 83 % 0 in
08:17 65.8 °F 60.6 °F 30 in WSW 9 mph 16 mph 83 % 0 in
08:27 65.8 °F 60.6 °F 30 in WNW 7 mph 14 mph 83 % 0 in
08:32 65.8 °F 60.6 °F 30 in WSW 11 mph 14 mph 83 % 0 in
08:37 65.7 °F 60.4 °F 30 in WSW 7 mph 19 mph 83 % 0 in
08:42 65.8 °F 60.6 °F 30 in SW 12 mph 19 mph 83 % 0 in
08:47 65.8 °F 60.6 °F 30 in West 5 mph 20 mph 83 % 0 in
08:52 65.8 °F 60.6 °F 30 in WSW 8 mph 20 mph 83 % 0 in
09:02 66 °F 60.4 °F 30 in WSW 7 mph 19 mph 82 % 0 in
09:07 66.4 °F 60.8 °F 30 in WSW 6 mph 19 mph 82 % 0 in
09:17 67.1 °F 61.2 °F 30 in WSW 9 mph 16 mph 81 % 0 in
09:22 67.5 °F 60.8 °F 30 in WSW 8 mph 16 mph 79 % 0 in
09:32 66.9 °F 60.3 °F 30 in WNW 10 mph 16 mph 79 % 0 in
09:42 67.3 °F 60.3 °F 30 in WSW 6 mph 16 mph 78 % 0 in
09:52 68 °F 59.7 °F 30 in SW 11 mph 20 mph 75 % 0 in
09:57 67.8 °F 59.5 °F 30 in WSW 17 mph 17 mph 75 % 0 in
10:02 67.6 °F 58.6 °F 30 in West 17 mph 17 mph 73 % 0 in
10:12 67.5 °F 58.5 °F 30 in West 11 mph 19 mph 73 % 0 in
10:17 67.6 °F 58.6 °F 30 in West 6 mph 22 mph 73 % 0 in
10:22 67.8 °F 58.5 °F 30 in WSW 15 mph 22 mph 72 % 0 in
10:32 68.2 °F 58.5 °F 30 in WSW 14 mph 21 mph 71 % 0 in
10:42 69.3 °F 59.5 °F 30 in SW 12 mph 19 mph 71 % 0 in
10:47 69.4 °F 58.5 °F 30 in WNW 8 mph 25 mph 68 % 0 in
10:52 69.3 °F 58.6 °F 30 in WSW 10 mph 25 mph 69 % 0 in
11:02 68.7 °F 57.7 °F 30 in WSW 9 mph 21 mph 68 % 0 in
11:12 68.7 °F 58.5 °F 30 in West 4 mph 20 mph 70 % 0 in
11:17 69.1 °F 58.5 °F 30 in West 9 mph 17 mph 69 % 0 in
11:22 68.9 °F 58.6 °F 30 in SW 10 mph 17 mph 70 % 0 in
11:32 68.4 °F 58.6 °F 30 in SW 6 mph 17 mph 71 % 0 in
11:37 68.4 °F 57.7 °F 30 in WSW 11 mph 17 mph 69 % 0 in
11:42 68.2 °F 57.2 °F 30 in SW 16 mph 17 mph 68 % 0 in
11:52 68.4 °F 57.7 °F 30 in SSW 8 mph 20 mph 69 % 0 in
12:02 68.4 °F 57.7 °F 30 in West 9 mph 20 mph 69 % 0 in
12:12 68.5 °F 56.7 °F 30 in West 9 mph 13 mph 66 % 0 in
12:17 68.9 °F 57 °F 30 in SW 6 mph 19 mph 66 % 0 in
12:22 68.9 °F 56.7 °F 30 in SW 15 mph 19 mph 65 % 0 in
12:32 69.1 °F 55.9 °F 30 in West 7 mph 20 mph 63 % 0 in
12:42 70 °F 56.3 °F 30 in West 7 mph 20 mph 62 % 0 in
12:52 70.9 °F 55.8 °F 30 in WSW 6 mph 20 mph 59 % 0 in
12:57 70.3 °F 55.8 °F 30 in West 3 mph 17 mph 60 % 0 in
13:02 70 °F 55.4 °F 30 in West 6 mph 17 mph 60 % 0 in
13:07 69.4 °F 55.9 °F 30 in West 6 mph 15 mph 62 % 0 in
13:12 69.4 °F 55.9 °F 30 in SW 11 mph 15 mph 62 % 0 in
13:17 69.4 °F 55.9 °F 30 in SW 11 mph 14 mph 62 % 0 in
13:22 69.6 °F 55.9 °F 30 in West 8 mph 14 mph 62 % 0 in
13:32 69.6 °F 56.5 °F 30 in WSW 2 mph 16 mph 63 % 0 in
13:42 69.3 °F 56.1 °F 30 in WSW 5 mph 15 mph 63 % 0 in
13:52 68.9 °F 57 °F 30 in WNW 6 mph 15 mph 66 % 0 in
14:02 68.4 °F 57 °F 30 in West 8 mph 11 mph 67 % 0 in
14:12 68.4 °F 56.5 °F 30 in SW 4 mph 11 mph 66 % 0 in
14:17 68.4 °F 57 °F 30 in WSW 6 mph 12 mph 67 % 0 in
14:22 68.7 °F 56.8 °F 30 in WSW 5 mph 12 mph 66 % 0 in
14:32 69.3 °F 56.5 °F 30 in SW 12 mph 12 mph 64 % 0 in
14:42 69.1 °F 56.8 °F 30 in West 5 mph 14 mph 65 % 0 in
14:47 69.1 °F 56.8 °F 30 in West 4 mph 12 mph 65 % 0 in
14:52 69.1 °F 56.8 °F 30 in West 9 mph 12 mph 65 % 0 in
15:02 68.9 °F 56.3 °F 30 in SW 8 mph 12 mph 64 % 0 in
15:07 68.9 °F 56.3 °F 30 in West 6 mph 13 mph 64 % 0 in
15:12 68.9 °F 56.7 °F 30 in WSW 3 mph 13 mph 65 % 0 in
15:17 69.1 °F 56.8 °F 30 in West 2 mph 11 mph 65 % 0 in
15:22 69.3 °F 57.4 °F 30 in SW 2 mph 11 mph 66 % 0 in
15:32 70 °F 56.8 °F 30 in WNW 5 mph 11 mph 63 % 0 in
15:42 69.4 °F 56.3 °F 30 in WNW 6 mph 11 mph 63 % 0 in
15:52 69.4 °F 56.3 °F 30 in WNW 6 mph 12 mph 63 % 0 in
15:57 69.4 °F 56.3 °F 30 in SSW 5 mph 11 mph 63 % 0 in
16:02 69.6 °F 55.6 °F 30 in WNW 8 mph 11 mph 61 % 0 in
16:12 69.8 °F 55.8 °F 30 in WSW 7 mph 11 mph 61 % 0 in
16:17 70 °F 56.3 °F 30 in West 5 mph 12 mph 62 % 0 in
16:22 70.2 °F 56.1 °F 30 in SSW 2 mph 12 mph 61 % 0 in
16:32 70 °F 55.9 °F 30 in SW 6 mph 10 mph 61 % 0 in
16:42 70.3 °F 55.8 °F 30 in SW 7 mph 12 mph 60 % 0 in
16:47 70.5 °F 56.5 °F 30 in SSW 6 mph 9 mph 61 % 0 in
16:52 70.5 °F 55.9 °F 30 in South 4 mph 9 mph 60 % 0 in
16:57 70.7 °F 55.6 °F 30 in WSW 3 mph 9 mph 59 % 0 in
17:02 70.9 °F 54.9 °F 30 in West 4 mph 9 mph 57 % 0 in
17:07 70.9 °F 54.9 °F 30 in WSW 7 mph 10 mph 57 % 0 in
17:12 70.9 °F 54.9 °F 30 in WNW 5 mph 10 mph 57 % 0 in
17:17 70.7 °F 54.7 °F 30 in West 7 mph 12 mph 57 % 0 in
17:22 70.9 °F 54.9 °F 30 in WSW 2 mph 12 mph 57 % 0 in
17:27 71.1 °F 55 °F 30 in SW 5 mph 11 mph 57 % 0 in
17:32 71.1 °F 55 °F 30 in WSW 6 mph 11 mph 57 % 0 in
17:37 71.4 °F 55.4 °F 30 in WSW 6 mph 9 mph 57 % 0 in
17:47 71.8 °F 54.3 °F 30 in West 7 mph 12 mph 54 % 0 in
17:52 71.8 °F 54.7 °F 30 in West 8 mph 12 mph 55 % 0 in
18:02 71.8 °F 54.7 °F 30 in West 9 mph 13 mph 55 % 0 in
18:12 71.6 °F 54.5 °F 30 in SW 3 mph 12 mph 55 % 0 in
18:17 71.8 °F 54.7 °F 30 in West 6 mph 14 mph 55 % 0 in
18:22 72 °F 54.9 °F 30 in SW 6 mph 14 mph 55 % 0 in
18:27 72.1 °F 54.5 °F 30 in West 5 mph 14 mph 54 % 0 in
18:32 72.3 °F 54.7 °F 30 in WSW 6 mph 13 mph 54 % 0 in
18:37 72.3 °F 54.7 °F 30 in WNW 5 mph 13 mph 54 % 0 in
18:42 72.1 °F 54.1 °F 30 in SW 6 mph 12 mph 53 % 0 in
18:52 71.8 °F 54.7 °F 30 in West 3 mph 12 mph 55 % 0 in
18:57 71.8 °F 54.7 °F 30 in WSW 3 mph 12 mph 55 % 0 in
19:02 71.8 °F 54.7 °F 30 in SW 2 mph 12 mph 55 % 0 in
19:07 72.5 °F 54.9 °F 30 in WSW 2 mph 8 mph 54 % 0 in
19:17 73.2 °F 54.5 °F 30 in West 6 mph 10 mph 52 % 0 in
19:22 73 °F 54.9 °F 30 in West 2 mph 10 mph 53 % 0 in
19:27 73.2 °F 54.5 °F 30 in West 6 mph 10 mph 52 % 0 in
19:32 73 °F 54.9 °F 30 in West 5 mph 10 mph 53 % 0 in
19:37 72.7 °F 54 °F 30 in West 3 mph 10 mph 52 % 0 in
19:42 72.3 °F 54.1 °F 30 in WSW 7 mph 10 mph 53 % 0 in
19:47 71.8 °F 54.3 °F 30 in WNW 3 mph 8 mph 54 % 0 in
19:52 71.4 °F 54.5 °F 30 in West 2 mph 8 mph 55 % 0 in
19:57 71.4 °F 54.9 °F 30 in Calm   8 mph 56 % 0 in
20:02 71.4 °F 54.9 °F 30 in Calm   8 mph 56 % 0 in
20:07 72.1 °F 54.5 °F 30 in WSW 2 mph 5 mph 54 % 0 in
20:12 72.7 °F 54.5 °F 30 in West 3 mph 5 mph 53 % 0 in
20:17 72.9 °F 54.7 °F 30 in Calm   5 mph 53 % 0 in
20:22 73 °F 54.9 °F 30 in NW 4 mph 5 mph 53 % 0 in
20:32 72.9 °F 55.2 °F 30 in Calm   8 mph 54 % 0 in
20:37 72.7 °F 55 °F 30 in WNW 2 mph 7 mph 54 % 0 in
20:42 72.1 °F 55 °F 30 in North 3 mph 7 mph 55 % 0 in
20:52 71.2 °F 54.7 °F 30 in NW 2 mph 6 mph 56 % 0 in
21:02 70 °F 54.5 °F 30 in Calm   5 mph 58 % 0 in
21:07 69.4 °F 54.5 °F 30 in Calm   3 mph 59 % 0 in
21:17 68.5 °F 54.5 °F 30 in Calm     61 % 0 in
21:22 68.2 °F 54.7 °F 30 in Calm     62 % 0 in
21:27 67.5 °F 54.5 °F 30 in WNW 2 mph 2 mph 63 % 0 in
21:32 66.6 °F 54.5 °F 30 in Calm   2 mph 65 % 0 in
21:37 65.8 °F 54.1 °F 30 in Calm   3 mph 66 % 0 in
21:42 65.5 °F 54.7 °F 30 in Calm   3 mph 68 % 0 in
21:47 65.1 °F 54.7 °F 30 in Calm   1 mph 69 % 0 in
21:52 64.9 °F 54.5 °F 30 in Calm   1 mph 69 % 0 in
21:57 64.9 °F 54.5 °F 30 in Calm   1 mph 69 % 0 in
22:02 64.6 °F 54.1 °F 30 in Calm   1 mph 69 % 0 in
22:12 63.5 °F 54.3 °F 30 in Calm   1 mph 72 % 0 in
22:17 63.3 °F 54.1 °F 30 in Calm     72 % 0 in
22:27 63.3 °F 54.1 °F 30 in Calm     72 % 0 in
22:37 63 °F 54.1 °F 30 in Calm     73 % 0 in
22:42 62.6 °F 54.1 °F 30 in Calm     74 % 0 in
22:52 61.5 °F 54 °F 30 in Calm     76 % 0 in
22:57 61.2 °F 54 °F 30 in Calm     77 % 0 in
23:07 60.6 °F 54.1 °F 30 in Calm     79 % 0 in
23:17 61 °F 53.8 °F 30 in Calm     77 % 0 in
23:22 60.8 °F 53.6 °F 30 in Calm     77 % 0 in
23:27 60.6 °F 53.8 °F 30 in Calm     78 % 0 in
23:32 60.4 °F 54 °F 30 in Calm     79 % 0 in
23:42 60.3 °F 53.8 °F 30 in Calm     79 % 0 in
23:47 60.3 °F 53.8 °F 30 in Calm     79 % 0 in
23:52 60.3 °F 53.8 °F 30 in Calm     79 % 0 in
23:57 60.1 °F 53.6 °F 30 in Calm     79 % 0 in
Meteo18
Compliments of Weather Underground - 4 mb

Script developed by  Jim McMurry - jmcmurry@mwt.net Adapted for the template by  Wim van der Kuil - Leuven-Template.eu

You find our weather info also at:

European Weather Network

Weather Underground

Equipment we use:

Weather-station
Davis Vue

Weather-program
Meteohub

Weather-server
Raspberry PI 2 B+

Provider
1 and 1

Davis Vue

Meteohub

Raspberry PI 2 B+

1 and 1